[[[{"header":{"parameterUnit":"kt","parameterCategory":2,"dx":1,"dy":1,"la1":30.253999710083008,"la2":30.299108505249023,"lo1":-89.0895004272461,"lo2":-89.04439544677734,"nx":28,"ny":28,"refTime":"2022-10-10T21:00:00:Z","depth":0,"parameterNumber":1,"parameterNumberName":"U-component_of_WINDS"},"data":[-6.0967,-6.1048,-6.1073,-6.1178,-6.1219,-6.1295,-6.133,-6.1379,-6.1424,-6.1519,-6.1578,-6.1611,-6.1666,-6.1743,-6.1809,-6.1822,-6.1847,-6.186,-6.1873,-6.1795,-6.1786,-6.1777,-6.1758,-6.1866,-6.1866,-6.195,-6.1951,-6.1951,-6.0914,-6.0955,-6.1017,-6.1094,-6.1148,-6.1152,-6.1213,-6.1258,-6.1326,-6.1382,-6.144,-6.1525,-6.1596,-6.1647,-6.1718,-6.1758,-6.1763,-6.1776,-6.1772,-6.1781,-6.1699,-6.1679,-6.1771,-6.1771,-6.1771,-6.1771,-6.1771,-6.1771,-6.0824,-6.0872,-6.0931,-6.0999,-6.1044,-6.1096,-6.1145,-6.1184,-6.1245,-6.1321,-6.1339,-6.1416,-6.1475,-6.1572,-6.161,-6.1672,-6.1662,-6.1682,-6.1687,-6.1692,-6.1694,-6.157,-6.1685,-6.1685,-6.1685,-6.1685,-6.1685,0,-6.0765,-6.0782,-6.0842,-6.091,-6.096,-6.1015,-6.1069,-6.11,-6.1142,-6.1191,-6.1263,-6.1309,-6.1399,-6.147,-6.1542,-6.1577,-6.1583,-6.1586,-6.16,-6.1592,-6.1577,-6.1586,-6.1451,-6.1581,-6.158,-6.158,-6.1579,-6.1579,-6.0675,-6.0727,-6.0799,-6.0839,-6.0873,-6.0935,-6.0977,-6.101,-6.1053,-6.1125,-6.1165,-6.1236,-6.1294,-6.1405,-6.1448,-6.1515,-6.1518,-6.1566,-6.1528,-6.152,-6.1518,-6.1514,-6.152,-6.1571,-6.1572,-6.1573,-6.1573,0,-6.0623,-6.0659,-6.0746,-6.0812,-6.083,-6.0883,-6.094,-6.0988,-6.1019,-6.109,-6.1108,-6.1156,-6.1226,-6.1261,-6.1347,-6.1363,-6.1453,-6.1455,-6.1434,-6.1436,-6.1481,-6.1476,-6.1624,-6.1645,-6.1535,-6.1536,-6.1537,0,-6.0559,-6.0625,-6.0676,-6.0724,-6.0799,-6.0829,-6.0903,-6.0936,-6.0985,-6.1041,-6.1053,-6.1106,-6.1141,-6.12,-6.1223,-6.1303,-6.1319,-6.1336,-6.134,-6.1333,-6.1331,-6.1353,-6.1347,-6.135,-6.1349,-6.1349,-6.1348,0,-6.047,-6.0574,-6.0653,-6.0682,-6.0756,-6.0793,-6.0826,-6.088,-6.092,-6.0977,-6.1004,-6.1069,-6.1104,-6.1155,-6.1183,-6.1157,-6.1282,-6.1251,-6.1298,-6.1298,-6.1321,-6.1319,-6.1444,-6.1347,-6.1347,-6.1347,-6.1346,0,-6.0422,-6.0479,-6.0587,-6.065,-6.0675,-6.0727,-6.0792,-6.0844,-6.09,-6.0917,-6.0963,-6.0973,-6.1045,-6.1012,-6.1112,-6.1069,-6.1103,-6.1125,-6.1129,-6.1135,-6.1096,-6.116,-6.1277,-6.129,-6.1146,-6.1144,-6.1142,0,-6.0312,-6.0429,-6.0453,-6.0556,-6.0614,-6.0622,-6.0681,-6.0729,-6.0757,-6.0811,-6.0842,-6.0903,-6.0886,-6.0909,-6.0954,-6.0988,-6.1044,-6.0982,-6.106,-6.1062,-6.1043,-6.1152,-6.116,-6.1248,-6.1121,-6.1124,-6.1125,0,-6.0228,-6.0315,-6.0331,-6.0365,-6.0431,-6.0479,-6.0546,-6.0612,-6.0647,-6.0699,-6.0756,-6.0843,-6.0833,-6.087,-6.0884,-6.0929,-6.1007,-6.0912,-6.0913,-6.0927,-6.1113,-6.1121,-6.1135,-6.1007,-6.101,-6.1012,-6.1109,0,-6.0147,-6.0209,-6.0254,-6.0325,-6.0368,-6.0432,-6.0464,-6.0505,-6.0514,-6.054,-6.0624,-6.0669,-6.0735,-6.076,-6.0768,-6.0861,-6.085,-6.0837,-6.0804,-6.0876,-6.0908,-6.0922,-6.0753,-6.0752,-6.0752,-6.0751,0,0,-6.0031,-6.0119,-6.014,-6.0204,-6.024,-6.0245,-6.0311,-6.0347,-6.0419,-6.0444,-6.0427,-6.0554,-6.059,-6.0688,-6.0713,-6.074,-6.0759,-6.0731,-6.0842,-6.0852,-6.0861,-6.0895,-6.0909,-6.075,-6.075,-6.075,-6.0749,0,-6.0006,-6.0043,-6.0107,-6.0146,-6.0202,-6.0226,-6.0241,-6.0297,-6.0316,-6.0397,-6.0398,-6.0451,-6.055,-6.0589,-6.0622,-6.0722,-6.0718,-6.074,-6.0782,-6.0834,-6.0845,-6.0854,-6.089,-6.0903,-6.0748,-6.0748,-6.0748,0,-5.9929,-5.997,-6.0004,-6.0085,-6.0121,-6.018,-6.0154,-6.0216,-6.0261,-6.0258,-6.0337,-6.0366,-6.042,-6.0507,-6.0548,-6.0532,-6.0678,-6.0637,-6.0642,-6.0646,-6.0697,-6.071,-6.0721,-6.0569,-6.0568,-6.0567,0,0,-5.9903,-5.9959,-6.001,-6.0081,-6.0105,-6.0139,-6.0172,-6.0183,-6.023,-6.0249,-6.0284,-6.0331,-6.0389,-6.0426,-6.0482,-6.0573,-6.0586,-6.0613,-6.0622,-6.0629,-6.0636,-6.0689,-6.0702,-6.0565,-6.0565,-6.0564,0,0,-5.989,-5.9952,-5.9951,-6.0037,-6.0083,-6.0137,-6.0179,-6.018,-6.0232,-6.0227,-6.0247,-6.026,-6.0343,-6.037,-6.0329,-6.047,-6.0437,-6.0447,-6.0448,-6.0459,-6.0468,-6.0458,-6.0305,0,0,0,0,0,-5.9879,-5.9945,-5.9943,-5.9962,-6.0062,-6.0138,-6.0151,-6.0169,-6.0146,-6.018,-6.021,-6.0202,-6.0352,-6.0316,-6.0335,-6.0379,-6.0528,-6.0535,-6.0541,-6.0564,-6.0575,-6.0584,0,0,0,0,0,0,-5.9886,-5.9909,-5.9942,-5.9998,-6.0021,-6.0136,-6.0101,-6.0107,-6.0143,-6.014,-6.0197,-6.0204,-6.022,-6.0308,-6.0324,-6.0366,-6.03,-6.0531,-6.0536,-6.0541,-6.0567,-6.0577,-6.0585,0,0,0,0,0,-5.9892,-5.9911,-6.0067,-5.9997,-6.0017,-6.0057,-6.0098,-6.0104,-6.0131,-6.0176,-6.0182,-6.0141,-6.0221,-6.0236,-6.0318,-6.0358,-6.0289,-6.0295,-6.0534,-6.0539,-6.0542,-6.0572,0,0,0,0,0,0,-5.9897,-5.9916,-6.0071,-6.0078,-5.9972,-6.0051,-6.0063,-6.01,-6.0164,-6.0172,-6.012,-6.0117,-6.0223,-6.0234,-6.0246,-6.0354,-6.028,-6.0286,-6.029,-6.0537,-6.0541,-6.0544,0,0,0,0,0,0,-5.9907,-5.9922,-6.0074,-6.0042,-6.0045,-6.0045,-6.0056,-6.0127,-6.0165,-6.0105,-6.0105,-6.0118,-6.0205,-6.0233,-6.0242,-6.0352,-6.0273,-6.0278,-6.0283,-6.0285,-6.054,-6.0543,0,0,0,0,0,0,-5.9913,-5.9927,-6.004,-6.0043,-6.0046,-6.0122,-6.0108,-6.021,-6.0138,-6.0102,-6.0132,-6.0129,-6.0204,-6.0214,-6.0239,-6.0345,-6.035,-6.0273,-6.0277,-6.028,-6.0282,0,0,0,0,0,0,0,-5.9919,-5.9826,-6.0031,-6.0044,-6.0046,-6.014,-6.0142,-6.0144,-6.0137,-6.0135,-6.0132,-6.013,-6.0239,-6.0245,-6.0252,-6.034,0,0,-6.0272,-6.0275,0,0,0,0,0,0,0,0,-5.982,-5.9824,-6.0031,-6.0033,-6.0034,-6.014,-6.0142,-6.0143,-6.0137,-6.0135,-6.0133,-6.0131,-6.0241,-6.0246,-6.0251,0,0,0,0,0,0,0,0,0,0,0,0,0,0,0,-6.0031,-6.0033,0,-6.014,-6.0142,-6.0143,-6.0136,-6.0135,-6.0133,-6.0132,-6.0242,-6.0246,-6.0251,0,0,0,0,0,0,0,0,0,0,0,0,0,0,0,0,0,0,0,0,0,0,0,0,0,0,0,0,0,0,0,0,0,0,0,0,0,0,0,0,0,0,0,0,0,0,0,0,0,0,0,0,0,0,0,0,0,0,0,0,0,0,0,0,0,0,0,0,0]}],[{"header":{"parameterUnit":"kt","parameterCategory":2,"dx":1,"dy":1,"la1":30.253999710083008,"la2":30.299108505249023,"lo1":-89.0895004272461,"lo2":-89.04439544677734,"nx":28,"ny":28,"refTime":"2022-10-10T21:00:00:Z","depth":0,"parameterNumber":2,"parameterNumberName":"V-component_of_WINDS"},"data":[5.6028,5.6019,5.6001,5.5982,5.5961,5.5945,5.5932,5.5914,5.5892,5.587,5.5852,5.5828,5.5796,5.5768,5.5747,5.5735,5.5728,5.5746,5.5729,5.5675,5.5666,5.5657,5.5659,5.5744,5.5744,5.5789,5.5789,5.579,5.6008,5.5988,5.5971,5.594,5.5925,5.59,5.5872,5.5861,5.5845,5.5816,5.5795,5.5771,5.5747,5.5705,5.5678,5.5673,5.5657,5.5668,5.5668,5.5663,5.5605,5.5607,5.5683,5.5683,5.5683,5.5683,5.5683,5.5683,5.5966,5.5961,5.5929,5.5908,5.5885,5.5864,5.5854,5.5823,5.5802,5.577,5.5744,5.5723,5.5687,5.5636,5.5611,5.5594,5.5576,5.5578,5.5579,5.5581,5.559,5.554,5.5587,5.5586,5.5586,5.5586,5.5586,0,5.5928,5.5912,5.5889,5.5864,5.5846,5.5821,5.5793,5.5786,5.5732,5.5716,5.5691,5.5672,5.5633,5.5605,5.5569,5.554,5.5504,5.5495,5.5497,5.5512,5.5535,5.5527,5.5437,5.5492,5.5491,5.549,5.549,5.5489,5.5887,5.5879,5.583,5.5818,5.5795,5.5774,5.5757,5.5709,5.5692,5.5648,5.5642,5.5613,5.5586,5.5544,5.5499,5.5467,5.5448,5.5474,5.5442,5.5461,5.5452,5.5454,5.5456,5.548,5.5481,5.5482,5.5483,0,5.5867,5.5825,5.5804,5.5751,5.5738,5.5732,5.5687,5.5675,5.5641,5.562,5.5612,5.5556,5.5528,5.5477,5.5431,5.5406,5.54,5.538,5.5416,5.541,5.5431,5.5431,5.5495,5.5503,5.5412,5.5413,5.5413,0,5.5814,5.5803,5.5742,5.573,5.5719,5.5668,5.5657,5.5625,5.5588,5.5571,5.5521,5.5506,5.544,5.5418,5.5378,5.5363,5.5352,5.5331,5.5321,5.5336,5.534,5.5323,5.532,5.5292,5.5292,5.5292,5.5291,0,5.5787,5.5736,5.5718,5.5699,5.5636,5.5629,5.5602,5.5557,5.5536,5.5501,5.5488,5.5448,5.5427,5.5398,5.5348,5.533,5.5325,5.5288,5.5304,5.5306,5.5303,5.5304,5.5377,5.5291,5.5291,5.5291,5.5291,0,5.5735,5.5703,5.568,5.5628,5.5615,5.56,5.5561,5.5535,5.5491,5.5465,5.5435,5.5393,5.537,5.534,5.5308,5.53,5.5282,5.5259,5.5259,5.5252,5.5219,5.527,5.5342,5.5349,5.5252,5.5251,5.5251,0,5.5719,5.5681,5.5635,5.5612,5.5587,5.5535,5.5517,5.5477,5.544,5.5413,5.5371,5.5337,5.5302,5.5283,5.5275,5.5229,5.5241,5.5226,5.5187,5.5187,5.5206,5.5272,5.5296,5.5333,5.5246,5.5246,5.5247,0,5.5698,5.5618,5.5616,5.5593,5.5529,5.5504,5.5483,5.5438,5.5423,5.5378,5.536,5.5307,5.528,5.5247,5.5204,5.5198,5.5231,5.5168,5.5165,5.5184,5.5236,5.5261,5.5267,5.5205,5.5205,5.5206,5.5242,0,5.5638,5.5609,5.5601,5.5542,5.5514,5.5492,5.5434,5.5413,5.5378,5.5337,5.5304,5.5247,5.5195,5.5184,5.5144,5.5146,5.5137,5.5105,5.5068,5.5111,5.5122,5.5125,5.5059,5.5057,5.5056,5.5055,0,0,5.5633,5.5588,5.5532,5.5507,5.548,5.5419,5.5403,5.5367,5.5295,5.5278,5.5258,5.5174,5.5126,5.5092,5.51,5.5076,5.5072,5.5055,5.509,5.5094,5.5098,5.5111,5.5116,5.5052,5.5052,5.5052,5.5051,0,5.5598,5.5555,5.5538,5.5501,5.5442,5.5398,5.5395,5.5322,5.5294,5.5257,5.5204,5.5175,5.5102,5.5062,5.5032,5.506,5.5018,5.5047,5.5086,5.508,5.5086,5.5091,5.5105,5.511,5.5048,5.5048,5.5048,0,5.5569,5.5518,5.5501,5.5432,5.5391,5.5361,5.5312,5.5279,5.5257,5.5182,5.5145,5.5104,5.504,5.5012,5.4996,5.4976,5.4974,5.4959,5.4965,5.4961,5.4951,5.4958,5.4965,5.4881,5.4881,5.488,0,0,5.5546,5.5515,5.5439,5.5419,5.5398,5.5329,5.5305,5.5264,5.521,5.5188,5.5132,5.508,5.5038,5.5011,5.4967,5.4944,5.4927,5.4941,5.4949,5.4956,5.4956,5.4948,5.4955,5.4879,5.4879,5.4879,0,0,5.5532,5.5445,5.5418,5.5387,5.534,5.526,5.525,5.5213,5.5167,5.5161,5.5086,5.5068,5.504,5.4997,5.4992,5.4953,5.4918,5.4917,5.4981,5.4989,5.4997,5.5007,5.4926,0,0,0,0,0,5.5462,5.5457,5.5433,5.5419,5.5324,5.5275,5.5262,5.5202,5.5182,5.5176,5.5124,5.5078,5.4981,5.4974,5.4959,5.4964,5.4865,5.4868,5.487,5.4946,5.4956,5.4964,0,0,0,0,0,0,5.5456,5.5438,5.5433,5.5354,5.5332,5.5274,5.5227,5.521,5.5181,5.5173,5.509,5.5075,5.502,5.4977,5.4964,5.4971,5.493,5.4866,5.4868,5.487,5.4949,5.4957,5.4965,0,0,0,0,0,5.5451,5.5436,5.5301,5.5353,5.5335,5.5254,5.5226,5.5212,5.5188,5.5103,5.5087,5.5145,5.5022,5.5007,5.4969,5.4979,5.4938,5.4934,5.4868,5.4869,5.4871,5.4953,0,0,0,0,0,0,5.5447,5.5422,5.5296,5.5288,5.535,5.5256,5.524,5.5214,5.5118,5.5102,5.5154,5.515,5.5023,5.5011,5.5,5.4985,5.4945,5.4941,5.4938,5.4869,5.487,5.4871,0,0,0,0,0,0,5.5429,5.5416,5.5292,5.5291,5.5282,5.5259,5.5244,5.52,5.5117,5.5174,5.5167,5.5153,5.5039,5.5014,5.5005,5.4939,5.495,5.4946,5.4943,5.4941,5.487,5.4871,0,0,0,0,0,0,5.5422,5.5411,5.5292,5.5286,5.5278,5.5183,5.5218,5.5123,5.5121,5.5179,5.5119,5.5118,5.5043,5.5032,5.5009,5.4947,5.4941,5.495,5.4947,5.4945,5.4944,0,0,0,0,0,0,0,5.5417,5.551,5.5345,5.5282,5.5275,5.5214,5.5212,5.5209,5.5121,5.512,5.5119,5.5118,5.4976,5.4971,5.4966,5.4954,0,0,5.4951,5.4949,0,0,0,0,0,0,0,0,5.5513,5.5511,5.5344,5.5343,5.5341,5.5214,5.5212,5.521,5.5121,5.512,5.5119,5.5118,5.4974,5.497,5.4966,0,0,0,0,0,0,0,0,0,0,0,0,0,0,0,5.5344,5.5343,0,5.5213,5.5212,5.521,5.5121,5.512,5.5119,5.5119,5.4973,5.497,5.4967,0,0,0,0,0,0,0,0,0,0,0,0,0,0,0,0,0,0,0,0,0,0,0,0,0,0,0,0,0,0,0,0,0,0,0,0,0,0,0,0,0,0,0,0,0,0,0,0,0,0,0,0,0,0,0,0,0,0,0,0,0,0,0,0,0,0,0,0,0]}]]]